Weather History for Hamilton, OH

Change the Weather History Date:

Sunday, November 3, 2013

  Actual Average (KCVG) Record (KCVG)
Temperature  
Mean Temperature 45 °F 50 °F  
Max Temperature 55 °F 60 °F 81 °F (1946)
Min Temperature 34 °F 40 °F 12 °F (1951)
Degree Days  
Heating Degree Days 20 15  
Month to date heating degree days 44  
Since 1 July heating degree days 406  
Cooling Degree Days 0 0  
Month to date cooling degree days 0  
Year to date cooling degree days 1121  
Moisture  
Dew Point 37 °F    
Average Humidity 76    
Maximum Humidity 96    
Minimum Humidity 44    
Precipitation  
Precipitation 0.00 in 0.11 in 2.26 in (2011)
Month to date precipitation 0.35  
Year to date precipitation 36.07  
Snow  
Snow 0.00 in 0.00 in 0.50 in (1966)
Month to date snowfall 0.0  
Since 1 July snowfall 0.4  
Since 1 September snowfall 0.4  
Snow Depth -    
Sea Level Pressure  
Sea Level Pressure 30.29 in    
Wind  
Wind Speed 3 mph (North)    
Max Wind Speed 7 mph    
Max Gust Speed -    
Visibility 10 miles    
Events      
T = Trace of Precipitation, MM = Missing Value Source: NWS Daily Summary

Daily Weather History Graph

Daily Weather History Graph

Search for Another Location

Airport:

Trip Planner

Search our weather history database for the weather conditions in past years. The results will help you decide how hot, cold, wet, or windy it might be!

Date:

Astronomy

Nov. 03, 2013 Rise Set
Actual Time 7:08 AM EST 5:34 PM EST
Civil Twilight 6:40 AM EST 6:02 PM EST
Nautical Twilight 6:08 AM EST 6:33 PM EST
Astronomical Twilight 5:37 AM EST 7:05 PM EST
Moon 7:11 AM EST (11/3) 5:48 PM EST (11/3)
Length of Visible Light 11h 21m
Length of Day
10h 25m
New Moon, 0% of the Moon is Illuminated
Nov 3
New Moon
Nov 10
First Quarter
Nov 17
Full
Nov 25
Last Quarter
Dec 2
New

Hourly Weather History & Observations

Time (EST) Temp. Windchill Dew Point Humidity Pressure Visibility Wind Dir Wind Speed Gust Speed Precip Events Conditions
12:53 AM 46.0 °F 43.1 °F 39.9 °F 79% 30.12 in 10.0 mi NW 5.8 mph - 0.00 in   Overcast
1:53 AM 45.0 °F 41.2 °F 39.0 °F 80% 30.14 in 10.0 mi NW 6.9 mph - N/A   Overcast
1:53 AM 42.1 °F 40.2 °F 37.9 °F 85% 30.15 in 10.0 mi NW 3.5 mph - N/A   Mostly Cloudy
2:53 AM 37.9 °F 33.5 °F 35.1 °F 89% 30.16 in 10.0 mi NW 5.8 mph - N/A   Scattered Clouds
3:53 AM 41.0 °F 39.0 °F 37.9 °F 89% 30.19 in 10.0 mi WNW 3.5 mph - N/A   Overcast
4:53 AM 41.0 °F 39.0 °F 39.0 °F 93% 30.22 in 10.0 mi WSW 3.5 mph - N/A   Overcast
5:53 AM 39.9 °F - 37.0 °F 89% 30.23 in 10.0 mi Calm Calm - N/A   Mostly Cloudy
6:53 AM 36.0 °F - 34.0 °F 93% 30.26 in 10.0 mi Calm Calm - N/A   Clear
7:53 AM 37.0 °F - 36.0 °F 96% 30.30 in 8.0 mi Calm Calm - N/A   Partly Cloudy
8:53 AM 44.1 °F 41.5 °F 39.9 °F 85% 30.32 in 9.0 mi NW 4.6 mph - N/A   Clear
9:53 AM 48.0 °F - 39.9 °F 74% 30.32 in 10.0 mi Calm Calm - N/A   Clear
10:10 AM 48.2 °F - 39.2 °F 71% 30.32 in 10.0 mi Calm Calm - N/A   Mostly Cloudy
10:25 AM 48.2 °F - 39.2 °F 71% 30.32 in 10.0 mi NE 3.5 mph - N/A   Scattered Clouds
10:39 AM 48.2 °F - 39.2 °F 71% 30.33 in 10.0 mi ENE 3.5 mph - N/A   Mostly Cloudy
10:53 AM 48.9 °F - 39.9 °F 71% 30.35 in 10.0 mi North 4.6 mph - N/A   Mostly Cloudy
11:24 AM 50.0 °F - 39.2 °F 66% 30.34 in 10.0 mi NE 4.6 mph - N/A   Scattered Clouds
11:53 AM 51.1 °F - 37.9 °F 61% 30.35 in 10.0 mi Calm Calm - N/A   Mostly Cloudy
12:53 PM 51.1 °F - 37.9 °F 61% 30.33 in 10.0 mi NE 4.6 mph - N/A   Overcast
1:53 PM 53.1 °F - 37.9 °F 57% 30.32 in 10.0 mi NE 4.6 mph - N/A   Overcast
2:53 PM 55.0 °F - 34.0 °F 45% 30.32 in 10.0 mi Calm Calm - N/A   Clear
3:53 PM 55.9 °F - 34.0 °F 44% 30.31 in 10.0 mi SSE 4.6 mph - N/A   Mostly Cloudy
4:53 PM 51.1 °F - 36.0 °F 56% 30.32 in 10.0 mi East 6.9 mph - N/A   Mostly Cloudy
5:53 PM 44.1 °F - 36.0 °F 73% 30.33 in 10.0 mi Calm Calm - N/A   Clear
6:53 PM 39.0 °F - 34.0 °F 82% 30.35 in 10.0 mi Calm Calm - N/A   Clear
7:53 PM 37.0 °F - 33.1 °F 86% 30.35 in 10.0 mi Calm Calm - N/A   Clear
8:53 PM 37.0 °F - 33.1 °F 86% 30.35 in 10.0 mi Calm Calm - N/A   Clear
9:53 PM 35.1 °F - 33.1 °F 92% 30.38 in 10.0 mi Calm Calm - N/A   Clear
10:53 PM 34.0 °F - 32.0 °F 92% 30.39 in 9.0 mi Calm Calm - N/A   Clear